owner,sensor,date,latitude,longitude,vertical_datum,sea_water_practical_salinity,qcFlag 
DISL,ioos:station:DISL:MHPA:1,2009-01-01T00:00:00Z,30.6671,-87.9365,0.7,0.3,11111222 
DISL,ioos:station:DISL:MHPA:1,2009-01-01T00:30:00Z,30.6671,-87.9365,0.7,0.3,11111222 
DISL,ioos:station:DISL:MHPA:1,2009-01-01T01:00:00Z,30.6671,-87.9365,0.7,0.3,11111222 
DISL,ioos:station:DISL:MHPA:1,2009-01-01T01:30:00Z,30.6671,-87.9365,0.7,0.3,11111222 
DISL,ioos:station:DISL:MHPA:1,2009-01-01T02:00:00Z,30.6671,-87.9365,0.7,0.3,11111222 
DISL,ioos:station:DISL:MHPA:1,2009-01-01T02:30:00Z,30.6671,-87.9365,0.7,0.3,11111222 
DISL,ioos:station:DISL:MHPA:1,2009-01-01T03:00:00Z,30.6671,-87.9365,0.7,0.3,11111222 
DISL,ioos:station:DISL:MHPA:1,2009-01-01T03:30:00Z,30.6671,-87.9365,0.7,0.3,11111222 
DISL,ioos:station:DISL:MHPA:1,2009-01-01T04:00:00Z,30.6671,-87.9365,0.7,0.3,11111222 
DISL,ioos:station:DISL:MHPA:1,2009-01-01T04:30:00Z,30.6671,-87.9365,0.6,0.3,11111222 
DISL,ioos:station:DISL:MHPA:1,2009-01-01T05:00:00Z,30.6671,-87.9365,0.6,0.2,11111222 
DISL,ioos:station:DISL:MHPA:1,2009-01-01T06:30:00Z,30.6671,-87.9365,2.27,0.23,1111122 
DISL,ioos:station:DISL:MHPA:1,2009-01-01T07:00:00Z,30.6671,-87.9365,2.465,0.23,1111122 
DISL,ioos:station:DISL:MHPA:1,2009-01-01T07:30:00Z,30.6671,-87.9365,2.473,0.24,1111122 
DISL,ioos:station:DISL:MHPA:1,2009-01-01T08:00:00Z,30.6671,-87.9365,2.453,0.26,1111122 
DISL,ioos:station:DISL:MHPA:1,2009-01-01T08:30:00Z,30.6671,-87.9365,2.473,0.26,1111122 
DISL,ioos:station:DISL:MHPA:1,2009-01-01T09:00:00Z,30.6671,-87.9365,2.495,0.28,1111122 
DISL,ioos:station:DISL:MHPA:1,2009-01-01T09:30:00Z,30.6671,-87.9365,2.556,0.28,1111122 
DISL,ioos:station:DISL:MHPA:1,2009-01-01T10:00:00Z,30.6671,-87.9365,2.587,0.28,1111122 
DISL,ioos:station:DISL:MHPA:1,2009-01-01T10:30:00Z,30.6671,-87.9365,2.609,0.26,1111122 
DISL,ioos:station:DISL:MHPA:1,2009-01-01T11:00:00Z,30.6671,-87.9365,2.671,0.23,1111122 
DISL,ioos:station:DISL:MHPA:1,2009-01-01T11:30:00Z,30.6671,-87.9365,2.735,0.21,1111122 
DISL,ioos:station:DISL:MHPA:1,2009-01-01T12:00:00Z,30.6671,-87.9365,2.756,0.22,1111122 
DISL,ioos:station:DISL:MHPA:1,2009-01-01T12:30:00Z,30.6671,-87.9365,2.807,0.23,1111122 
DISL,ioos:station:DISL:MHPA:1,2009-01-01T13:00:00Z,30.6671,-87.9365,2.887,0.23,1111122 
DISL,ioos:station:DISL:MHPA:1,2009-01-01T13:30:00Z,30.6671,-87.9365,2.798,0.23,1111122 
DISL,ioos:station:DISL:MHPA:1,2009-01-01T14:00:00Z,30.6671,-87.9365,2.636,0.23,1111122 
DISL,ioos:station:DISL:MHPA:1,2009-01-01T14:30:00Z,30.6671,-87.9365,2.538,0.24,1111122 
DISL,ioos:station:DISL:MHPA:1,2009-01-01T15:00:00Z,30.6671,-87.9365,2.508,0.24,1111122 
DISL,ioos:station:DISL:MHPA:1,2009-01-01T15:30:00Z,30.6671,-87.9365,2.539,0.24,1111122 
DISL,ioos:station:DISL:MHPA:1,2009-01-01T16:00:00Z,30.6671,-87.9365,2.524,0.24,1111122 
DISL,ioos:station:DISL:MHPA:1,2009-01-01T16:30:00Z,30.6671,-87.9365,2.502,0.24,1111122 
DISL,ioos:station:DISL:MHPA:1,2009-01-01T17:00:00Z,30.6671,-87.9365,2.556,0.25,1111122 
DISL,ioos:station:DISL:MHPA:1,2009-01-01T17:30:00Z,30.6671,-87.9365,2.616,0.26,1111122 
DISL,ioos:station:DISL:MHPA:1,2009-01-01T18:00:00Z,30.6671,-87.9365,2.646,0.26,1111122 
DISL,ioos:station:DISL:MHPA:1,2009-01-01T18:30:00Z,30.6671,-87.9365,2.754,0.26,1111122 
DISL,ioos:station:DISL:MHPA:1,2009-01-01T19:00:00Z,30.6671,-87.9365,2.915,0.25,1111122 
DISL,ioos:station:DISL:MHPA:1,2009-01-01T19:30:00Z,30.6671,-87.9365,2.923,0.23,1111122 
DISL,ioos:station:DISL:MHPA:1,2009-01-01T20:00:00Z,30.6671,-87.9365,3.031,0.21,1111122 
DISL,ioos:station:DISL:MHPA:1,2009-01-01T20:30:00Z,30.6671,-87.9365,3.108,0.2,1111122 
DISL,ioos:station:DISL:MHPA:1,2009-01-01T21:00:00Z,30.6671,-87.9365,3.164,0.2,1111122 
DISL,ioos:station:DISL:MHPA:1,2009-01-01T21:30:00Z,30.6671,-87.9365,3.199,0.2,1111122 
DISL,ioos:station:DISL:MHPA:1,2009-01-01T22:00:00Z,30.6671,-87.9365,3.212,0.2,1111122 
DISL,ioos:station:DISL:MHPA:1,2009-01-01T22:30:00Z,30.6671,-87.9365,3.226,0.21,1111122 
DISL,ioos:station:DISL:MHPA:1,2009-01-01T23:00:00Z,30.6671,-87.9365,3.28,0.21,1111122 
DISL,ioos:station:DISL:MHPA:1,2009-01-01T23:30:00Z,30.6671,-87.9365,3.308,0.22,1111122 
DISL,ioos:station:DISL:MHPA:1,2009-01-02T00:00:00Z,30.6671,-87.9365,3.297,0.23,1111122 
DISL,ioos:station:DISL:MHPA:1,2009-01-02T00:30:00Z,30.6671,-87.9365,3.335,0.24,1111122 
DISL,ioos:station:DISL:MHPA:1,2009-01-02T01:00:00Z,30.6671,-87.9365,3.431,0.24,1111122 
DISL,ioos:station:DISL:MHPA:1,2009-01-02T01:30:00Z,30.6671,-87.9365,3.399,0.23,1111122 
DISL,ioos:station:DISL:MHPA:1,2009-01-02T02:00:00Z,30.6671,-87.9365,3.356,0.23,1111122 
DISL,ioos:station:DISL:MHPA:1,2009-01-02T02:30:00Z,30.6671,-87.9365,3.394,0.21,1111122 
DISL,ioos:station:DISL:MHPA:1,2009-01-02T03:00:00Z,30.6671,-87.9365,3.411,0.21,1111122 
DISL,ioos:station:DISL:MHPA:1,2009-01-02T03:30:00Z,30.6671,-87.9365,3.426,0.23,1111122 
DISL,ioos:station:DISL:MHPA:1,2009-01-02T04:00:00Z,30.6671,-87.9365,3.546,0.23,1111122 
DISL,ioos:station:DISL:MHPA:1,2009-01-02T04:30:00Z,30.6671,-87.9365,3.664,0.25,1111122 
DISL,ioos:station:DISL:MHPA:1,2009-01-02T05:00:00Z,30.6671,-87.9365,3.729,0.25,1111122 
DISL,ioos:station:DISL:MHPA:1,2009-01-02T05:30:00Z,30.6671,-87.9365,3.84,0.24,1111122 
DISL,ioos:station:DISL:MHPA:1,2009-01-02T06:00:00Z,30.6671,-87.9365,3.941,0.24,1111122 
DISL,ioos:station:DISL:MHPA:1,2009-01-02T06:30:00Z,30.6671,-87.9365,3.982,0.23,1111122 
DISL,ioos:station:DISL:MHPA:1,2009-01-02T07:00:00Z,30.6671,-87.9365,4.049,0.21,1111122 
DISL,ioos:station:DISL:MHPA:1,2009-01-02T07:30:00Z,30.6671,-87.9365,4.063,0.22,1111122 
DISL,ioos:station:DISL:MHPA:1,2009-01-02T08:00:00Z,30.6671,-87.9365,4.003,0.23,1111122 
DISL,ioos:station:DISL:MHPA:1,2009-01-02T08:30:00Z,30.6671,-87.9365,4.03,0.25,1111122 
DISL,ioos:station:DISL:MHPA:1,2009-01-02T09:00:00Z,30.6671,-87.9365,4.009,0.24,1111122 
DISL,ioos:station:DISL:MHPA:1,2009-01-02T09:30:00Z,30.6671,-87.9365,3.877,0.24,1111122 
DISL,ioos:station:DISL:MHPA:1,2009-01-02T10:00:00Z,30.6671,-87.9365,3.762,0.21,1111122 
DISL,ioos:station:DISL:MHPA:1,2009-01-02T10:30:00Z,30.6671,-87.9365,3.729,0.2,1111122 
DISL,ioos:station:DISL:MHPA:1,2009-01-02T11:00:00Z,30.6671,-87.9365,3.622,0.2,1111122 
DISL,ioos:station:DISL:MHPA:1,2009-01-02T11:30:00Z,30.6671,-87.9365,3.553,0.2,1111122 
DISL,ioos:station:DISL:MHPA:1,2009-01-02T12:00:00Z,30.6671,-87.9365,3.469,0.2,1111122 
DISL,ioos:station:DISL:MHPA:1,2009-01-02T12:30:00Z,30.6671,-87.9365,3.356,0.21,1111122 
DISL,ioos:station:DISL:MHPA:1,2009-01-02T13:00:00Z,30.6671,-87.9365,3.268,0.21,1111122 
DISL,ioos:station:DISL:MHPA:1,2009-01-02T13:30:00Z,30.6671,-87.9365,3.188,0.22,1111122 
DISL,ioos:station:DISL:MHPA:1,2009-01-02T14:00:00Z,30.6671,-87.9365,3.116,0.23,1111122 
DISL,ioos:station:DISL:MHPA:1,2009-01-02T14:30:00Z,30.6671,-87.9365,3.055,0.23,1111122 
DISL,ioos:station:DISL:MHPA:1,2009-01-02T15:00:00Z,30.6671,-87.9365,3.039,0.23,1111122 
DISL,ioos:station:DISL:MHPA:1,2009-01-02T15:30:00Z,30.6671,-87.9365,2.988,0.22,1111122 
DISL,ioos:station:DISL:MHPA:1,2009-01-02T16:00:00Z,30.6671,-87.9365,2.948,0.23,1111122 
DISL,ioos:station:DISL:MHPA:1,2009-01-02T16:30:00Z,30.6671,-87.9365,2.958,0.22,1111122 
DISL,ioos:station:DISL:MHPA:1,2009-01-02T17:00:00Z,30.6671,-87.9365,2.987,0.22,1111122 
DISL,ioos:station:DISL:MHPA:1,2009-01-02T17:30:00Z,30.6671,-87.9365,3.012,0.21,1111122 
DISL,ioos:station:DISL:MHPA:1,2009-01-02T18:00:00Z,30.6671,-87.9365,3.123,0.22,1111122 
DISL,ioos:station:DISL:MHPA:1,2009-01-02T18:30:00Z,30.6671,-87.9365,3.227,0.22,1111122 
DISL,ioos:station:DISL:MHPA:1,2009-01-02T19:00:00Z,30.6671,-87.9365,3.242,0.22,1111122 
DISL,ioos:station:DISL:MHPA:1,2009-01-02T19:30:00Z,30.6671,-87.9365,3.376,0.22,1111122 
DISL,ioos:station:DISL:MHPA:1,2009-01-02T20:00:00Z,30.6671,-87.9365,3.464,0.2,1111122 
DISL,ioos:station:DISL:MHPA:1,2009-01-02T20:30:00Z,30.6671,-87.9365,3.53,0.18,1111122 
DISL,ioos:station:DISL:MHPA:1,2009-01-02T21:00:00Z,30.6671,-87.9365,3.575,0.18,1111122 
DISL,ioos:station:DISL:MHPA:1,2009-01-02T21:30:00Z,30.6671,-87.9365,3.632,0.19,1111122 
DISL,ioos:station:DISL:MHPA:1,2009-01-02T22:00:00Z,30.6671,-87.9365,3.666,0.19,1111122 
DISL,ioos:station:DISL:MHPA:1,2009-01-02T22:30:00Z,30.6671,-87.9365,3.696,0.2,1111122 
DISL,ioos:station:DISL:MHPA:1,2009-01-02T23:00:00Z,30.6671,-87.9365,3.676,0.2,1111122 
DISL,ioos:station:DISL:MHPA:1,2009-01-02T23:30:00Z,30.6671,-87.9365,3.64,0.2,1111122 
DISL,ioos:station:DISL:MHPA:1,2009-01-03T00:00:00Z,30.6671,-87.9365,3.684,0.2,1111122 
DISL,ioos:station:DISL:MHPA:1,2009-01-03T00:30:00Z,30.6671,-87.9365,3.648,0.21,1111122 
DISL,ioos:station:DISL:MHPA:1,2009-01-03T01:00:00Z,30.6671,-87.9365,3.576,0.21,1111122 
DISL,ioos:station:DISL:MHPA:1,2009-01-03T01:30:00Z,30.6671,-87.9365,3.584,0.2,1111122 
DISL,ioos:station:DISL:MHPA:1,2009-01-03T02:00:00Z,30.6671,-87.9365,3.549,0.2,1111122 
DISL,ioos:station:DISL:MHPA:1,2009-01-03T02:30:00Z,30.6671,-87.9365,3.454,0.2,1111122 
DISL,ioos:station:DISL:MHPA:1,2009-01-03T03:00:00Z,30.6671,-87.9365,3.486,0.2,1111122 
DISL,ioos:station:DISL:MHPA:1,2009-01-03T03:30:00Z,30.6671,-87.9365,3.442,0.2,1111122 
DISL,ioos:station:DISL:MHPA:1,2009-01-03T04:00:00Z,30.6671,-87.9365,3.387,0.2,1111122 
DISL,ioos:station:DISL:MHPA:1,2009-01-03T04:30:00Z,30.6671,-87.9365,3.346,0.19,1111122 
DISL,ioos:station:DISL:MHPA:1,2009-01-03T05:00:00Z,30.6671,-87.9365,3.338,0.18,1111122 
DISL,ioos:station:DISL:MHPA:1,2009-01-03T05:30:00Z,30.6671,-87.9365,3.342,0.17,1111122 
DISL,ioos:station:DISL:MHPA:1,2009-01-03T06:00:00Z,30.6671,-87.9365,3.311,0.17,1111122 
DISL,ioos:station:DISL:MHPA:1,2009-01-03T06:30:00Z,30.6671,-87.9365,3.381,0.17,1111122 
DISL,ioos:station:DISL:MHPA:1,2009-01-03T07:00:00Z,30.6671,-87.9365,3.408,0.18,1111122 
DISL,ioos:station:DISL:MHPA:1,2009-01-03T07:30:00Z,30.6671,-87.9365,3.42,0.18,1111122 
DISL,ioos:station:DISL:MHPA:1,2009-01-03T08:00:00Z,30.6671,-87.9365,3.435,0.18,1111122 
DISL,ioos:station:DISL:MHPA:1,2009-01-03T08:30:00Z,30.6671,-87.9365,3.438,0.18,1111122 
DISL,ioos:station:DISL:MHPA:1,2009-01-03T09:00:00Z,30.6671,-87.9365,3.459,0.18,1111122 
DISL,ioos:station:DISL:MHPA:1,2009-01-03T09:30:00Z,30.6671,-87.9365,3.455,0.17,1111122 
DISL,ioos:station:DISL:MHPA:1,2009-01-03T10:00:00Z,30.6671,-87.9365,3.388,0.16,1111122 
DISL,ioos:station:DISL:MHPA:1,2009-01-03T10:30:00Z,30.6671,-87.9365,3.374,0.15,1111122 
DISL,ioos:station:DISL:MHPA:1,2009-01-03T11:00:00Z,30.6671,-87.9365,3.348,0.15,1111122 
DISL,ioos:station:DISL:MHPA:1,2009-01-03T11:30:00Z,30.6671,-87.9365,3.335,0.15,1111122 
DISL,ioos:station:DISL:MHPA:1,2009-01-03T12:00:00Z,30.6671,-87.9365,3.321,0.15,1111122 
DISL,ioos:station:DISL:MHPA:1,2009-01-03T12:30:00Z,30.6671,-87.9365,3.232,0.15,1111122 
DISL,ioos:station:DISL:MHPA:1,2009-01-03T13:00:00Z,30.6671,-87.9365,3.228,0.16,1111122 
DISL,ioos:station:DISL:MHPA:1,2009-01-03T13:30:00Z,30.6671,-87.9365,3.195,0.16,1111122 
DISL,ioos:station:DISL:MHPA:1,2009-01-03T14:00:00Z,30.6671,-87.9365,3.132,0.16,1111122 
DISL,ioos:station:DISL:MHPA:1,2009-01-03T14:30:00Z,30.6671,-87.9365,3.108,0.16,1111122 
DISL,ioos:station:DISL:MHPA:1,2009-01-03T15:00:00Z,30.6671,-87.9365,3.091,0.17,1111122 
DISL,ioos:station:DISL:MHPA:1,2009-01-03T15:30:00Z,30.6671,-87.9365,3.091,0.16,1111122 
DISL,ioos:station:DISL:MHPA:1,2009-01-03T16:00:00Z,30.6671,-87.9365,3.077,0.16,1111122 
DISL,ioos:station:DISL:MHPA:1,2009-01-03T16:30:00Z,30.6671,-87.9365,3.081,0.16,1111122 
DISL,ioos:station:DISL:MHPA:1,2009-01-03T17:00:00Z,30.6671,-87.9365,3.178,0.16,1111122 
DISL,ioos:station:DISL:MHPA:1,2009-01-03T17:30:00Z,30.6671,-87.9365,3.207,0.16,1111122 
DISL,ioos:station:DISL:MHPA:1,2009-01-03T18:00:00Z,30.6671,-87.9365,3.319,0.16,1111122 
DISL,ioos:station:DISL:MHPA:1,2009-01-03T18:30:00Z,30.6671,-87.9365,3.409,0.16,1111122 
DISL,ioos:station:DISL:MHPA:1,2009-01-03T19:00:00Z,30.6671,-87.9365,3.507,0.17,1111122 
DISL,ioos:station:DISL:MHPA:1,2009-01-03T19:30:00Z,30.6671,-87.9365,3.729,0.18,1111122 
DISL,ioos:station:DISL:MHPA:1,2009-01-03T20:00:00Z,30.6671,-87.9365,3.711,0.17,1111122 
DISL,ioos:station:DISL:MHPA:1,2009-01-03T20:30:00Z,30.6671,-87.9365,3.725,0.16,1111122 
DISL,ioos:station:DISL:MHPA:1,2009-01-03T21:00:00Z,30.6671,-87.9365,3.834,0.17,1111122 
DISL,ioos:station:DISL:MHPA:1,2009-01-03T21:30:00Z,30.6671,-87.9365,3.901,0.16,1111122 
DISL,ioos:station:DISL:MHPA:1,2009-01-03T22:00:00Z,30.6671,-87.9365,3.965,0.17,1111122 
DISL,ioos:station:DISL:MHPA:1,2009-01-03T22:30:00Z,30.6671,-87.9365,4.072,0.17,1111122 
DISL,ioos:station:DISL:MHPA:1,2009-01-03T23:00:00Z,30.6671,-87.9365,4.11,0.17,1111122 
DISL,ioos:station:DISL:MHPA:1,2009-01-03T23:30:00Z,30.6671,-87.9365,4.202,0.18,1111122 
DISL,ioos:station:DISL:MHPA:1,2009-01-04T00:00:00Z,30.6671,-87.9365,4.25,0.17,1111122 
DISL,ioos:station:DISL:MHPA:1,2009-01-04T00:30:00Z,30.6671,-87.9365,4.239,0.16,1111122 
DISL,ioos:station:DISL:MHPA:1,2009-01-04T01:00:00Z,30.6671,-87.9365,4.157,0.16,1111122 
DISL,ioos:station:DISL:MHPA:1,2009-01-04T01:30:00Z,30.6671,-87.9365,4.152,0.16,1111122 
DISL,ioos:station:DISL:MHPA:1,2009-01-04T02:00:00Z,30.6671,-87.9365,3.929,0.16,1111122 
DISL,ioos:station:DISL:MHPA:1,2009-01-04T02:30:00Z,30.6671,-87.9365,3.866,0.16,1111122 
DISL,ioos:station:DISL:MHPA:1,2009-01-04T03:00:00Z,30.6671,-87.9365,3.618,0.16,1111122 
DISL,ioos:station:DISL:MHPA:1,2009-01-04T03:30:00Z,30.6671,-87.9365,3.678,0.17,1111122 
DISL,ioos:station:DISL:MHPA:1,2009-01-04T04:00:00Z,30.6671,-87.9365,3.557,0.17,1111122 
DISL,ioos:station:DISL:MHPA:1,2009-01-04T04:30:00Z,30.6671,-87.9365,3.368,0.17,1111122 
DISL,ioos:station:DISL:MHPA:1,2009-01-04T05:00:00Z,30.6671,-87.9365,3.358,0.17,1111122 
DISL,ioos:station:DISL:MHPA:1,2009-01-04T05:30:00Z,30.6671,-87.9365,3.389,0.17,1111122 
DISL,ioos:station:DISL:MHPA:1,2009-01-04T06:00:00Z,30.6671,-87.9365,3.34,0.17,1111122 
DISL,ioos:station:DISL:MHPA:1,2009-01-04T06:30:00Z,30.6671,-87.9365,3.453,0.17,1111122 
DISL,ioos:station:DISL:MHPA:1,2009-01-04T07:00:00Z,30.6671,-87.9365,3.43,0.17,1111122 
DISL,ioos:station:DISL:MHPA:1,2009-01-04T07:30:00Z,30.6671,-87.9365,3.306,0.17,1111122 
DISL,ioos:station:DISL:MHPA:1,2009-01-04T08:00:00Z,30.6671,-87.9365,3.276,0.17,1111122 
DISL,ioos:station:DISL:MHPA:1,2009-01-04T08:30:00Z,30.6671,-87.9365,3.3,0.17,1111122 
DISL,ioos:station:DISL:MHPA:1,2009-01-04T09:00:00Z,30.6671,-87.9365,3.141,0.17,1111122 
DISL,ioos:station:DISL:MHPA:1,2009-01-04T09:30:00Z,30.6671,-87.9365,3.113,0.17,1111122 
DISL,ioos:station:DISL:MHPA:1,2009-01-04T10:00:00Z,30.6671,-87.9365,3.039,0.17,1111122 
DISL,ioos:station:DISL:MHPA:1,2009-01-04T10:30:00Z,30.6671,-87.9365,3.021,0.18,1111122 
DISL,ioos:station:DISL:MHPA:1,2009-01-04T11:00:00Z,30.6671,-87.9365,2.919,0.17,1111122 
DISL,ioos:station:DISL:MHPA:1,2009-01-04T11:30:00Z,30.6671,-87.9365,3.022,0.15,1111122 
DISL,ioos:station:DISL:MHPA:1,2009-01-04T12:00:00Z,30.6671,-87.9365,3.133,0.15,1111122 
DISL,ioos:station:DISL:MHPA:1,2009-01-04T12:30:00Z,30.6671,-87.9365,3.176,0.15,1111122 
DISL,ioos:station:DISL:MHPA:1,2009-01-04T13:00:00Z,30.6671,-87.9365,3.353,0.16,1111122 
DISL,ioos:station:DISL:MHPA:1,2009-01-04T13:30:00Z,30.6671,-87.9365,3.391,0.15,1111122 
DISL,ioos:station:DISL:MHPA:1,2009-01-04T14:00:00Z,30.6671,-87.9365,3.365,0.15,1111122 
DISL,ioos:station:DISL:MHPA:1,2009-01-04T14:30:00Z,30.6671,-87.9365,3.436,0.15,1111122 
DISL,ioos:station:DISL:MHPA:1,2009-01-04T15:00:00Z,30.6671,-87.9365,3.281,0.16,1111122 
DISL,ioos:station:DISL:MHPA:1,2009-01-04T15:30:00Z,30.6671,-87.9365,3.241,0.16,1111122 
DISL,ioos:station:DISL:MHPA:1,2009-01-04T16:00:00Z,30.6671,-87.9365,3.287,0.17,1111122 
DISL,ioos:station:DISL:MHPA:1,2009-01-04T16:30:00Z,30.6671,-87.9365,3.258,0.17,1111122 
DISL,ioos:station:DISL:MHPA:1,2009-01-04T17:00:00Z,30.6671,-87.9365,3.227,0.17,1111122 
DISL,ioos:station:DISL:MHPA:1,2009-01-04T17:30:00Z,30.6671,-87.9365,3.305,0.17,1111122 
DISL,ioos:station:DISL:MHPA:1,2009-01-04T18:00:00Z,30.6671,-87.9365,3.382,0.16,1111122 
DISL,ioos:station:DISL:MHPA:1,2009-01-04T18:30:00Z,30.6671,-87.9365,3.497,0.16,1111122 
DISL,ioos:station:DISL:MHPA:1,2009-01-04T19:00:00Z,30.6671,-87.9365,3.557,0.16,1111122 
DISL,ioos:station:DISL:MHPA:1,2009-01-04T19:30:00Z,30.6671,-87.9365,3.572,0.15,1111122 
DISL,ioos:station:DISL:MHPA:1,2009-01-04T20:00:00Z,30.6671,-87.9365,3.656,0.15,1111122 
DISL,ioos:station:DISL:MHPA:1,2009-01-04T20:30:00Z,30.6671,-87.9365,3.736,0.18,1111122 
DISL,ioos:station:DISL:MHPA:1,2009-01-04T21:00:00Z,30.6671,-87.9365,3.731,0.18,1111122 
DISL,ioos:station:DISL:MHPA:1,2009-01-04T21:30:00Z,30.6671,-87.9365,3.779,0.18,1111122 
DISL,ioos:station:DISL:MHPA:1,2009-01-04T22:00:00Z,30.6671,-87.9365,3.857,0.18,1111122 
DISL,ioos:station:DISL:MHPA:1,2009-01-04T22:30:00Z,30.6671,-87.9365,3.835,0.18,1111122 
DISL,ioos:station:DISL:MHPA:1,2009-01-04T23:00:00Z,30.6671,-87.9365,3.866,0.18,1111122 
DISL,ioos:station:DISL:MHPA:1,2009-01-04T23:30:00Z,30.6671,-87.9365,3.897,0.18,1111122 
DISL,ioos:station:DISL:MHPA:1,2009-01-05T00:00:00Z,30.6671,-87.9365,3.85,0.17,1111122 
DISL,ioos:station:DISL:MHPA:1,2009-01-05T00:30:00Z,30.6671,-87.9365,3.865,0.17,1111122 
DISL,ioos:station:DISL:MHPA:1,2009-01-05T01:00:00Z,30.6671,-87.9365,3.758,0.17,1111122 
DISL,ioos:station:DISL:MHPA:1,2009-01-05T01:30:00Z,30.6671,-87.9365,3.697,0.17,1111122 
DISL,ioos:station:DISL:MHPA:1,2009-01-05T02:00:00Z,30.6671,-87.9365,3.634,0.17,1111122 
DISL,ioos:station:DISL:MHPA:1,2009-01-05T02:30:00Z,30.6671,-87.9365,3.541,0.17,1111122 
DISL,ioos:station:DISL:MHPA:1,2009-01-05T03:00:00Z,30.6671,-87.9365,3.464,0.17,1111122 
DISL,ioos:station:DISL:MHPA:1,2009-01-05T03:30:00Z,30.6671,-87.9365,3.38,0.16,1111122 
DISL,ioos:station:DISL:MHPA:1,2009-01-05T04:00:00Z,30.6671,-87.9365,3.273,0.13,1111122 
DISL,ioos:station:DISL:MHPA:1,2009-01-05T04:30:00Z,30.6671,-87.9365,3.205,0.13,1111122 
DISL,ioos:station:DISL:MHPA:1,2009-01-05T05:00:00Z,30.6671,-87.9365,3.125,0.13,1111122 
DISL,ioos:station:DISL:MHPA:1,2009-01-05T05:30:00Z,30.6671,-87.9365,3.03,0.13,1111122 
DISL,ioos:station:DISL:MHPA:1,2009-01-05T06:00:00Z,30.6671,-87.9365,2.959,0.13,1111122 
DISL,ioos:station:DISL:MHPA:1,2009-01-05T06:30:00Z,30.6671,-87.9365,2.867,0.13,1111122 
DISL,ioos:station:DISL:MHPA:1,2009-01-05T07:00:00Z,30.6671,-87.9365,2.784,0.14,1111122 
DISL,ioos:station:DISL:MHPA:1,2009-01-05T07:30:00Z,30.6671,-87.9365,2.728,0.15,1111122 
DISL,ioos:station:DISL:MHPA:1,2009-01-05T08:00:00Z,30.6671,-87.9365,2.667,0.14,1111122 
DISL,ioos:station:DISL:MHPA:1,2009-01-05T08:30:00Z,30.6671,-87.9365,2.607,0.14,1111122 
DISL,ioos:station:DISL:MHPA:1,2009-01-05T09:00:00Z,30.6671,-87.9365,2.559,0.13,1111122 
DISL,ioos:station:DISL:MHPA:1,2009-01-05T09:30:00Z,30.6671,-87.9365,2.528,0.14,1111122 
DISL,ioos:station:DISL:MHPA:1,2009-01-05T10:00:00Z,30.6671,-87.9365,2.518,0.14,1111122 
DISL,ioos:station:DISL:MHPA:1,2009-01-05T10:30:00Z,30.6671,-87.9365,2.504,0.14,1111122 
DISL,ioos:station:DISL:MHPA:1,2009-01-05T11:00:00Z,30.6671,-87.9365,2.5,0.14,1111122 
DISL,ioos:station:DISL:MHPA:1,2009-01-05T11:30:00Z,30.6671,-87.9365,2.533,0.14,1111122 
DISL,ioos:station:DISL:MHPA:1,2009-01-05T12:00:00Z,30.6671,-87.9365,2.553,0.14,1111122 
DISL,ioos:station:DISL:MHPA:1,2009-01-05T12:30:00Z,30.6671,-87.9365,2.542,0.14,1111122 
DISL,ioos:station:DISL:MHPA:1,2009-01-05T13:00:00Z,30.6671,-87.9365,2.586,0.15,1111122 
DISL,ioos:station:DISL:MHPA:1,2009-01-05T13:30:00Z,30.6671,-87.9365,2.674,0.15,1111122 
DISL,ioos:station:DISL:MHPA:1,2009-01-05T14:00:00Z,30.6671,-87.9365,2.697,0.15,1111122 
DISL,ioos:station:DISL:MHPA:1,2009-01-05T14:30:00Z,30.6671,-87.9365,2.801,0.15,1111122 
DISL,ioos:station:DISL:MHPA:1,2009-01-05T15:00:00Z,30.6671,-87.9365,2.905,0.15,1111122 
DISL,ioos:station:DISL:MHPA:1,2009-01-05T15:30:00Z,30.6671,-87.9365,2.962,0.15,1111122 
DISL,ioos:station:DISL:MHPA:1,2009-01-05T16:00:00Z,30.6671,-87.9365,3.078,0.15,1111122 
DISL,ioos:station:DISL:MHPA:1,2009-01-05T16:30:00Z,30.6671,-87.9365,3.205,0.14,1111122 
DISL,ioos:station:DISL:MHPA:1,2009-01-05T17:00:00Z,30.6671,-87.9365,3.301,0.15,1111122 
DISL,ioos:station:DISL:MHPA:1,2009-01-05T17:30:00Z,30.6671,-87.9365,3.403,0.16,1111122 
DISL,ioos:station:DISL:MHPA:1,2009-01-05T18:00:00Z,30.6671,-87.9365,3.436,0.16,1111122 
DISL,ioos:station:DISL:MHPA:1,2009-01-05T18:30:00Z,30.6671,-87.9365,3.548,0.15,1111122 
DISL,ioos:station:DISL:MHPA:1,2009-01-05T19:00:00Z,30.6671,-87.9365,3.645,0.15,1111122 
DISL,ioos:station:DISL:MHPA:1,2009-01-05T19:30:00Z,30.6671,-87.9365,3.724,0.16,1111122 
DISL,ioos:station:DISL:MHPA:1,2009-01-05T20:00:00Z,30.6671,-87.9365,3.824,0.17,1111122 
DISL,ioos:station:DISL:MHPA:1,2009-01-05T20:30:00Z,30.6671,-87.9365,3.929,0.16,1111122 
DISL,ioos:station:DISL:MHPA:1,2009-01-05T21:00:00Z,30.6671,-87.9365,4.043,0.17,1111122 
DISL,ioos:station:DISL:MHPA:1,2009-01-05T21:30:00Z,30.6671,-87.9365,4.139,0.16,1111122 
DISL,ioos:station:DISL:MHPA:1,2009-01-05T22:00:00Z,30.6671,-87.9365,4.261,0.16,1111122 
DISL,ioos:station:DISL:MHPA:1,2009-01-05T22:30:00Z,30.6671,-87.9365,4.299,0.16,1111122 
DISL,ioos:station:DISL:MHPA:1,2009-01-05T23:00:00Z,30.6671,-87.9365,4.371,0.16,1111122 
DISL,ioos:station:DISL:MHPA:1,2009-01-05T23:30:00Z,30.6671,-87.9365,4.389,0.16,1111122 
DISL,ioos:station:DISL:MHPA:1,2009-01-06T00:00:00Z,30.6671,-87.9365,4.422,0.16,1111122 
DISL,ioos:station:DISL:MHPA:1,2009-01-06T00:30:00Z,30.6671,-87.9365,4.386,0.17,1111122 
DISL,ioos:station:DISL:MHPA:1,2009-01-06T01:00:00Z,30.6671,-87.9365,4.383,0.16,1111122 
DISL,ioos:station:DISL:MHPA:1,2009-01-06T01:30:00Z,30.6671,-87.9365,4.333,0.16,1111122 
DISL,ioos:station:DISL:MHPA:1,2009-01-06T02:00:00Z,30.6671,-87.9365,4.227,0.16,1111122 
DISL,ioos:station:DISL:MHPA:1,2009-01-06T02:30:00Z,30.6671,-87.9365,4.176,0.16,1111122 
DISL,ioos:station:DISL:MHPA:1,2009-01-06T03:00:00Z,30.6671,-87.9365,4.097,0.16,1111122 
DISL,ioos:station:DISL:MHPA:1,2009-01-06T03:30:00Z,30.6671,-87.9365,3.993,0.16,1111122 
DISL,ioos:station:DISL:MHPA:1,2009-01-06T04:00:00Z,30.6671,-87.9365,3.901,0.16,1111122 
DISL,ioos:station:DISL:MHPA:1,2009-01-06T04:30:00Z,30.6671,-87.9365,3.803,0.16,1111122 
DISL,ioos:station:DISL:MHPA:1,2009-01-06T05:00:00Z,30.6671,-87.9365,3.674,0.16,1111122 
DISL,ioos:station:DISL:MHPA:1,2009-01-06T05:30:00Z,30.6671,-87.9365,3.553,0.16,1111122 
DISL,ioos:station:DISL:MHPA:1,2009-01-06T06:00:00Z,30.6671,-87.9365,3.449,0.16,1111122 
DISL,ioos:station:DISL:MHPA:1,2009-01-06T06:30:00Z,30.6671,-87.9365,3.371,0.16,1111122 
DISL,ioos:station:DISL:MHPA:1,2009-01-06T07:00:00Z,30.6671,-87.9365,3.233,0.16,1111122 
DISL,ioos:station:DISL:MHPA:1,2009-01-06T07:30:00Z,30.6671,-87.9365,3.132,0.16,1111122 
DISL,ioos:station:DISL:MHPA:1,2009-01-06T08:00:00Z,30.6671,-87.9365,3.058,0.17,1111122 
DISL,ioos:station:DISL:MHPA:1,2009-01-06T08:30:00Z,30.6671,-87.9365,2.964,0.17,1111122 
DISL,ioos:station:DISL:MHPA:1,2009-01-06T09:00:00Z,30.6671,-87.9365,2.844,0.17,1111122 
DISL,ioos:station:DISL:MHPA:1,2009-01-06T09:30:00Z,30.6671,-87.9365,2.773,0.17,1111122 
DISL,ioos:station:DISL:MHPA:1,2009-01-06T10:00:00Z,30.6671,-87.9365,2.733,0.17,1111122 
DISL,ioos:station:DISL:MHPA:1,2009-01-06T10:30:00Z,30.6671,-87.9365,2.7,0.17,1111122 
DISL,ioos:station:DISL:MHPA:1,2009-01-06T11:00:00Z,30.6671,-87.9365,2.629,0.17,1111122 
DISL,ioos:station:DISL:MHPA:1,2009-01-06T11:30:00Z,30.6671,-87.9365,2.628,0.17,1111122 
DISL,ioos:station:DISL:MHPA:1,2009-01-06T12:00:00Z,30.6671,-87.9365,2.638,0.17,1111122 
DISL,ioos:station:DISL:MHPA:1,2009-01-06T12:30:00Z,30.6671,-87.9365,2.736,0.17,1111122 
DISL,ioos:station:DISL:MHPA:1,2009-01-06T13:00:00Z,30.6671,-87.9365,2.73,0.17,1111122 
DISL,ioos:station:DISL:MHPA:1,2009-01-06T13:30:00Z,30.6671,-87.9365,2.697,0.17,1111122 
DISL,ioos:station:DISL:MHPA:1,2009-01-06T14:00:00Z,30.6671,-87.9365,2.656,0.17,1111122 
DISL,ioos:station:DISL:MHPA:1,2009-01-06T14:30:00Z,30.6671,-87.9365,2.755,0.17,1111122 
DISL,ioos:station:DISL:MHPA:1,2009-01-06T15:00:00Z,30.6671,-87.9365,2.931,0.17,1111122 
DISL,ioos:station:DISL:MHPA:1,2009-01-06T15:30:00Z,30.6671,-87.9365,3.075,0.17,1111122 
DISL,ioos:station:DISL:MHPA:1,2009-01-06T16:00:00Z,30.6671,-87.9365,3.274,0.17,1111122 
DISL,ioos:station:DISL:MHPA:1,2009-01-06T16:30:00Z,30.6671,-87.9365,3.49,0.18,1111122 